{"data":{"norad_id":58933,"intl_designator":"2024-027C","name":"STARLINK-31350","alt_names":[],"object_type":"PAYLOAD","status":"ACTIVE","operator":null,"country":"US","launch_date":"2024-02-10","launch_site_code":"AFWTR","launch_vehicle":null,"mission":null,"orbit_class":"UNKNOWN","rcs_meters":null,"size_class":null,"mass_kg":null,"dimensions":null,"purposes":["comms"],"wikipedia_slug":null,"has_3d_model":false,"image_url":null,"decayed_at":null,"tle_current":{"epoch":"2026-09-20T02:33:40.191552Z","epoch_age_seconds":189699,"freshness":"STALE","line1":"1 58933U 24027C   26263.10671518  .00006607  00000+0  20632-3 0  9995","line2":"2 58933  53.1606 125.2179 0001449 103.5337 256.5827 15.34428755147111","mean_motion":15.34428755,"eccentricity":0.0001449,"inclination_deg":53.1606,"raan_deg":125.2179,"arg_perigee_deg":103.5337,"mean_anomaly_deg":256.5827,"bstar":0.00020632,"rev_number":14711,"period_min":93.845999386267,"perigee_km":461.62655025496,"apogee_km":463.60900098894,"semimajor_km":6840.754775622,"source":"CELESTRAK","updated_at":"2026-09-21T09:00:33.996187Z"}}}